[[{"header":{"parameterUnit":"m.s-1","parameterCategory":2,"la1":30.2991,"la2":30.254,"lo1":-89.0895,"lo2":-89.0444,"dy":0.0017,"dx":0.0017,"nx":28,"ny":28,"refTime":"2024-07-13T03:00:00:Z","depth":"0","parameterNumber":2,"parameterNumberName":"U-component_of_CURRENTS"},"data":[0,0,0,0,0,0,0,0,0,0,0,0,0,0,0,0,0,0,0,0,0,0,0,0,0,0,0,0,0,0,0,0,0,0,0,0,0,0,0,0,0,0,0,0,0,0,0,0,0,0,0,0,0,0,0,0,0,0,0.2105,0.2105,0,0.2132,0.2132,0.2133,0.2143,0.2142,0.2142,0.2142,0.2178,0.218,0.2181,0,0,0,0,0,0,0,0,0,0,0,0,0,0.205,0.2051,0.2104,0.2105,0.2105,0.2132,0.2132,0.2133,0.2143,0.2142,0.2142,0.2142,0.2178,0.2179,0.2181,0,0,0,0,0,0,0,0,0,0,0,0,0,0.2076,0.2051,0.2104,0.2113,0.2114,0.2132,0.2132,0.2133,0.2143,0.2142,0.2142,0.2142,0.2178,0.2179,0.2181,0.2194,0,0,0.2186,0.2187,0,0,0,0,0,0,0,0,0.2074,0.2078,0.2111,0.2113,0.2114,0.2134,0.2127,0.2154,0.2143,0.2132,0.2142,0.2142,0.2164,0.2167,0.2173,0.2196,0.2198,0.2186,0.2187,0.2188,0.2188,0,0,0,0,0,0,0,0.2072,0.2076,0.2116,0.2112,0.2113,0.2112,0.2116,0.2132,0.2149,0.2133,0.2134,0.2136,0.2165,0.2171,0.2174,0.2198,0.2186,0.2187,0.2188,0.2189,0.2298,0.2299,0,0,0,0,0,0,0.207,0.2075,0.2115,0.2116,0.2093,0.2113,0.2117,0.2127,0.2149,0.2152,0.2137,0.2137,0.2168,0.2172,0.2175,0.2233,0.2188,0.2189,0.219,0.2296,0.2298,0.23,0,0,0,0,0,0,0.2068,0.2073,0.2114,0.2095,0.2101,0.2114,0.2126,0.2128,0.2134,0.2151,0.2155,0.214,0.2168,0.2173,0.2215,0.2233,0.219,0.2191,0.2293,0.2296,0.2299,0.2323,0,0,0,0,0,0,0.2067,0.2073,0.2077,0.2096,0.2102,0.2123,0.2126,0.2129,0.2136,0.2136,0.2155,0.2159,0.2169,0.2213,0.2216,0.2234,0.2193,0.2291,0.2295,0.2298,0.2319,0.2326,0.2332,0,0,0,0,0,0.2065,0.2069,0.2077,0.2081,0.2108,0.2123,0.2126,0.2135,0.2136,0.214,0.2172,0.2158,0.2238,0.2216,0.222,0.2238,0.2289,0.2294,0.2298,0.2317,0.2325,0.2331,0,0,0,0,0,0,0.2046,0.2072,0.208,0.2092,0.2107,0.2125,0.2127,0.2135,0.2161,0.2164,0.2182,0.2189,0.2228,0.2238,0.2213,0.2284,0.2261,0.2266,0.2274,0.2282,0.2288,0.2258,0.2194,0,0,0,0,0,0.2044,0.2055,0.2079,0.2087,0.2095,0.2111,0.2118,0.2126,0.2151,0.2161,0.2178,0.221,0.2249,0.2269,0.2292,0.2332,0.2347,0.235,0.2356,0.236,0.2342,0.241,0.2419,0.2314,0.2314,0.2314,0,0,0.2035,0.2053,0.2056,0.2083,0.2094,0.2103,0.2115,0.2125,0.2137,0.2162,0.2185,0.2222,0.2264,0.2311,0.233,0.2322,0.2402,0.2366,0.237,0.2348,0.2415,0.2425,0.2434,0.2317,0.2317,0.2316,0,0,0.2025,0.2042,0.2048,0.2057,0.2077,0.2095,0.2098,0.2121,0.2136,0.217,0.2201,0.2254,0.2295,0.234,0.2368,0.2423,0.2426,0.2433,0.2445,0.2512,0.252,0.2528,0.2568,0.2579,0.2444,0.2444,0.2444,0,0.2012,0.2027,0.205,0.2054,0.2059,0.209,0.2092,0.2116,0.215,0.217,0.2177,0.2274,0.2308,0.2386,0.2413,0.2432,0.2464,0.2411,0.2518,0.2525,0.2533,0.2572,0.2584,0.2446,0.2445,0.2445,0.2445,0,0.2004,0.2013,0.2015,0.2036,0.2045,0.2052,0.2084,0.2104,0.2131,0.2159,0.2227,0.2294,0.2353,0.2386,0.2417,0.2496,0.25,0.251,0.2492,0.2544,0.2584,0.2595,0.2448,0.2447,0.2447,0.2447,0,0,0.198,0.2007,0.2005,0.2007,0.2034,0.2039,0.2067,0.2106,0.2134,0.2182,0.2228,0.2318,0.2358,0.2394,0.2453,0.2517,0.2609,0.2539,0.2541,0.2565,0.2746,0.2756,0.2769,0.2647,0.2649,0.265,0.2755,0,0.1967,0.1966,0.199,0.1988,0.1988,0.2022,0.205,0.2086,0.2134,0.2189,0.227,0.2335,0.2364,0.2414,0.2484,0.2579,0.264,0.2578,0.2703,0.2705,0.2697,0.2783,0.2816,0.2913,0.2767,0.2769,0.277,0,0.1945,0.195,0.1942,0.1967,0.1973,0.1981,0.2026,0.2063,0.2149,0.2185,0.226,0.2325,0.2434,0.2452,0.2616,0.2579,0.2657,0.2722,0.2728,0.2728,0.2737,0.2838,0.294,0.2814,0.2788,0.2787,0.2785,0,0.1895,0.1915,0.1908,0.1908,0.1944,0.1953,0.199,0.2057,0.2088,0.2192,0.2222,0.2351,0.242,0.2539,0.2669,0.2657,0.2841,0.2841,0.2914,0.2915,0.2959,0.296,0.2939,0.2947,0.2947,0.2947,0.2946,0,0.186,0.1855,0.1883,0.1869,0.1872,0.1921,0.1944,0.1996,0.2076,0.2118,0.2225,0.228,0.2446,0.2568,0.2681,0.2838,0.2854,0.2924,0.2953,0.297,0.297,0.2874,0.2803,0.2951,0.295,0.2949,0.2948,0,0.1797,0.1819,0.1804,0.1831,0.1839,0.184,0.1886,0.1917,0.2001,0.2061,0.2092,0.2236,0.2405,0.2566,0.2769,0.2847,0.2957,0.3044,0.3038,0.3064,0.2999,0.293,0.2902,0.2884,0.3144,0.3145,0.3146,0,0.1773,0.1752,0.1747,0.1734,0.1742,0.1756,0.1774,0.1857,0.1893,0.2029,0.2059,0.223,0.236,0.2655,0.2854,0.3069,0.2985,0.3185,0.3163,0.3004,0.295,0.284,0.2818,0.3239,0.3241,0.3242,0.3243,0,0.1702,0.169,0.1669,0.1643,0.164,0.1641,0.168,0.1697,0.1818,0.1884,0.2013,0.2138,0.2443,0.2684,0.2953,0.3105,0.3074,0.3214,0.3076,0.3041,0.2897,0.2891,0.3125,0.3254,0.3253,0.3252,0.3252,0.3251,0.1637,0.1595,0.1561,0.1533,0.1533,0.1534,0.1533,0.161,0.1671,0.1799,0.194,0.2127,0.248,0.2882,0.3025,0.3216,0.3131,0.3195,0.3133,0.3039,0.2988,0.3222,0.3361,0.3361,0.336,0.336,0.3359,0,0.1534,0.1492,0.1462,0.1418,0.1394,0.1429,0.1471,0.1493,0.1568,0.1723,0.1862,0.221,0.2514,0.2823,0.315,0.3134,0.3116,0.3054,0.2901,0.2895,0.3149,0.3116,0.3177,0.3177,0.3177,0.3177,0.3177,0.3177,0.1467,0.1389,0.137,0.1286,0.1275,0.1253,0.1274,0.1348,0.1453,0.1646,0.1826,0.2002,0.2364,0.2746,0.2932,0.2952,0.2792,0.2726,0.2637,0.2783,0.279,0.2796,0.2746,0.2728,0.2727,0.2398,0.2395,0.2393]},{"header":{"parameterUnit":"m.s-1","parameterCategory":2,"la1":30.2991,"la2":30.254,"lo1":-89.0895,"lo2":-89.0444,"dy":0.0017,"dx":0.0017,"nx":28,"ny":28,"refTime":"2024-07-13T03:00:00:Z","depth":"0","parameterNumber":3,"parameterNumberName":"V-component_of_CURRENTS"},"data":[0,0,0,0,0,0,0,0,0,0,0,0,0,0,0,0,0,0,0,0,0,0,0,0,0,0,0,0,0,0,0,0,0,0,0,0,0,0,0,0,0,0,0,0,0,0,0,0,0,0,0,0,0,0,0,0,0,0,-0.1119,-0.1119,0,-0.1136,-0.1135,-0.1135,-0.1162,-0.1163,-0.1164,-0.1165,-0.1172,-0.1171,-0.117,0,0,0,0,0,0,0,0,0,0,0,0,0,-0.1057,-0.1058,-0.1119,-0.1119,-0.112,-0.1136,-0.1135,-0.1135,-0.1162,-0.1163,-0.1164,-0.1165,-0.1172,-0.1171,-0.117,0,0,0,0,0,0,0,0,0,0,0,0,0,-0.1076,-0.1058,-0.1118,-0.1138,-0.114,-0.1136,-0.1135,-0.1135,-0.1162,-0.1163,-0.1164,-0.1165,-0.1172,-0.1171,-0.117,-0.1138,0,0,-0.1167,-0.1167,0,0,0,0,0,0,0,0,-0.1075,-0.1078,-0.1135,-0.1137,-0.1139,-0.1152,-0.1117,-0.1137,-0.1161,-0.1149,-0.1165,-0.1166,-0.1166,-0.1165,-0.116,-0.1139,-0.1139,-0.1167,-0.1167,-0.1166,-0.1166,0,0,0,0,0,0,0,-0.1074,-0.1077,-0.1121,-0.1135,-0.1138,-0.1128,-0.1133,-0.112,-0.1146,-0.115,-0.1153,-0.1161,-0.1167,-0.1161,-0.116,-0.1139,-0.1167,-0.1166,-0.1166,-0.1166,-0.1105,-0.1104,0,0,0,0,0,0,-0.1081,-0.1076,-0.1121,-0.1122,-0.1114,-0.1129,-0.1133,-0.1143,-0.1147,-0.115,-0.116,-0.1163,-0.1162,-0.1161,-0.1161,-0.1122,-0.1166,-0.1165,-0.1165,-0.1106,-0.1105,-0.1104,0,0,0,0,0,0,-0.108,-0.1085,-0.112,-0.1102,-0.1107,-0.113,-0.1139,-0.1143,-0.1142,-0.1155,-0.1158,-0.1158,-0.1163,-0.1162,-0.1148,-0.1123,-0.1165,-0.1164,-0.1107,-0.1106,-0.1104,-0.1045,0,0,0,0,0,0,-0.1078,-0.1084,-0.1081,-0.1103,-0.1108,-0.1112,-0.1139,-0.1142,-0.1147,-0.115,-0.1153,-0.1155,-0.1164,-0.1149,-0.1147,-0.1122,-0.1163,-0.1109,-0.1107,-0.1105,-0.1048,-0.1041,-0.1036,0,0,0,0,0,-0.1076,-0.1063,-0.1081,-0.1086,-0.1107,-0.1112,-0.1112,-0.113,-0.1145,-0.1135,-0.1141,-0.1156,-0.1136,-0.1147,-0.1145,-0.1119,-0.111,-0.1107,-0.1105,-0.1051,-0.1043,-0.1036,0,0,0,0,0,0,-0.1025,-0.1065,-0.1085,-0.1084,-0.1098,-0.1118,-0.1106,-0.1125,-0.112,-0.1123,-0.1139,-0.114,-0.1118,-0.1126,-0.1139,-0.1097,-0.1126,-0.1123,-0.1085,-0.1078,-0.1072,-0.105,-0.1163,0,0,0,0,0,-0.1017,-0.1022,-0.1057,-0.1053,-0.1059,-0.1083,-0.1084,-0.1101,-0.1108,-0.1108,-0.1111,-0.1112,-0.1104,-0.1099,-0.1092,-0.1065,-0.1072,-0.1048,-0.1042,-0.1037,-0.1018,-0.1021,-0.1013,-0.1096,-0.1096,-0.1096,0,0,-0.0995,-0.1018,-0.102,-0.1043,-0.1053,-0.1043,-0.1085,-0.1085,-0.107,-0.1107,-0.1075,-0.1088,-0.1092,-0.1065,-0.1056,-0.1069,-0.1015,-0.1034,-0.1029,-0.1013,-0.1017,-0.1009,-0.1002,-0.1095,-0.1095,-0.1095,0,0,-0.095,-0.0976,-0.0965,-0.0968,-0.099,-0.1008,-0.101,-0.1028,-0.1029,-0.1009,-0.1032,-0.1029,-0.1013,-0.1012,-0.1009,-0.0963,-0.0983,-0.0965,-0.0912,-0.0915,-0.0908,-0.0902,-0.0894,-0.0887,-0.0961,-0.0961,-0.096,0,-0.092,-0.0917,-0.0957,-0.0939,-0.0931,-0.099,-0.0962,-0.0968,-0.0977,-0.0966,-0.0991,-0.0968,-0.0983,-0.0947,-0.0936,-0.0947,-0.0951,-0.0941,-0.0907,-0.0901,-0.0896,-0.0889,-0.0882,-0.0957,-0.0958,-0.0958,-0.0958,0,-0.0865,-0.0858,-0.0846,-0.085,-0.0843,-0.083,-0.0853,-0.085,-0.0869,-0.0875,-0.085,-0.0872,-0.0861,-0.0868,-0.0887,-0.0853,-0.0867,-0.0901,-0.0925,-0.0884,-0.0879,-0.0874,-0.0953,-0.0954,-0.0955,-0.0956,0,0,-0.0807,-0.081,-0.0802,-0.0786,-0.0794,-0.0784,-0.076,-0.0754,-0.0734,-0.0749,-0.071,-0.0716,-0.0744,-0.0744,-0.0774,-0.0778,-0.0755,-0.0819,-0.0821,-0.0808,-0.075,-0.0748,-0.0743,-0.0787,-0.0786,-0.0785,-0.0759,0,-0.0751,-0.0701,-0.0717,-0.0662,-0.0635,-0.0667,-0.0636,-0.0634,-0.0645,-0.0625,-0.0655,-0.0636,-0.0693,-0.0692,-0.0703,-0.0743,-0.0739,-0.0758,-0.0793,-0.0793,-0.0796,-0.0736,-0.0697,-0.0669,-0.0754,-0.0753,-0.0752,0,-0.0686,-0.0662,-0.0596,-0.0569,-0.0559,-0.0534,-0.0502,-0.0488,-0.0486,-0.0488,-0.0489,-0.0522,-0.0524,-0.0588,-0.062,-0.0631,-0.0675,-0.0711,-0.0712,-0.0724,-0.0781,-0.0726,-0.0656,-0.0678,-0.0745,-0.0745,-0.0746,0,-0.0614,-0.0577,-0.0522,-0.0505,-0.0483,-0.0454,-0.0449,-0.0436,-0.0416,-0.0404,-0.0383,-0.0408,-0.0413,-0.0471,-0.0557,-0.0586,-0.0594,-0.065,-0.0681,-0.0682,-0.0659,-0.066,-0.0611,-0.0657,-0.0657,-0.0658,-0.0658,0,-0.0544,-0.0501,-0.0484,-0.0446,-0.0383,-0.0385,-0.0326,-0.0326,-0.0308,-0.0262,-0.0311,-0.0278,-0.0386,-0.0417,-0.0505,-0.0564,-0.0554,-0.0644,-0.0666,-0.0637,-0.0636,-0.0665,-0.0714,-0.0657,-0.0657,-0.0657,-0.0657,0,-0.0476,-0.0467,-0.04,-0.0359,-0.0347,-0.0297,-0.0265,-0.0227,-0.0216,-0.0156,-0.0147,-0.0174,-0.0205,-0.0306,-0.0394,-0.0485,-0.0607,-0.0578,-0.053,-0.0546,-0.0609,-0.0657,-0.0772,-0.0874,-0.0601,-0.06,-0.06,0,-0.0444,-0.0398,-0.0332,-0.0292,-0.0273,-0.0218,-0.0182,-0.0176,-0.0137,-0.0084,-0.0045,-0.0058,-0.0042,-0.0163,-0.0319,-0.0441,-0.057,-0.0505,-0.0558,-0.0575,-0.0645,-0.0791,-0.088,-0.0503,-0.0502,-0.0501,-0.05,0,-0.0374,-0.0346,-0.0293,-0.0209,-0.0157,-0.0102,-0.0053,-0.001,0.0013,0.0071,0.0143,0.0163,0.0058,-0.0023,-0.0203,-0.033,-0.058,-0.0492,-0.0518,-0.0557,-0.0703,-0.0822,-0.0556,-0.0493,-0.0493,-0.0494,-0.0494,-0.0495,-0.0327,-0.0272,-0.02,-0.0121,-0.0059,0.0022,0.0088,0.014,0.0221,0.0332,0.031,0.0396,0.0257,0.0025,-0.0152,-0.0405,-0.0535,-0.0476,-0.0529,-0.0673,-0.078,-0.049,-0.0454,-0.0455,-0.0455,-0.0456,-0.0456,0,-0.0271,-0.0208,-0.0124,-0.0018,0.0073,0.0084,0.0182,0.0259,0.0381,0.0476,0.0556,0.059,0.0414,0.0171,-0.0164,-0.037,-0.0587,-0.0489,-0.065,-0.0741,-0.0446,-0.0445,-0.0395,-0.0395,-0.0395,-0.0394,-0.0394,-0.0394,-0.0235,-0.0144,-0.0092,0.0078,0.0156,0.0287,0.0357,0.0467,0.0557,0.0721,0.0815,0.0859,0.0756,0.0197,-0.0224,-0.0387,-0.0653,-0.0698,-0.0852,-0.0555,-0.0558,-0.056,-0.0567,-0.0542,-0.0542,-0.117,-0.1174,-0.1178]}],[{"header":{"parameterUnit":"m.s-1","parameterCategory":2,"la1":30.2991,"la2":30.254,"lo1":-89.0895,"lo2":-89.0444,"dy":0.0017,"dx":0.0017,"nx":28,"ny":28,"refTime":"2024-07-13T03:00:00:Z","depth":"2","parameterNumber":2,"parameterNumberName":"U-component_of_CURRENTS"},"data":[0,0,0,0,0,0,0,0,0,0,0,0,0,0,0,0,0,0,0,0,0,0,0,0,0,0,0,0,0,0,0,0,0,0,0,0,0,0,0,0,0,0,0,0,0,0,0,0,0,0,0,0,0,0,0,0,0,0,0.0388,0.0389,0,0.0457,0.0457,0.0458,0.0496,0.0497,0.0497,0.0497,0.0508,0.0508,0.0508,0,0,0,0,0,0,0,0,0,0,0,0,0,0.0343,0.0343,0.0388,0.0389,0.039,0.0457,0.0457,0.0458,0.0496,0.0497,0.0497,0.0497,0.0508,0.0508,0.0508,0,0,0,0,0,0,0,0,0,0,0,0,0,0.038,0.0343,0.0388,0.0419,0.0422,0.0456,0.0457,0.0458,0.0496,0.0497,0.0497,0.0498,0.0508,0.0508,0.0508,0.0498,0,0,0.0508,0.0508,0,0,0,0,0,0,0,0,0.0378,0.0381,0.0413,0.0417,0.0421,0.047,0.0446,0.047,0.0496,0.0466,0.0497,0.0498,0.0491,0.0492,0.0502,0.0499,0.0499,0.0508,0.0508,0.0508,0.0508,0,0,0,0,0,0,0,0.0375,0.0379,0.0413,0.0414,0.0419,0.0448,0.0453,0.0451,0.0472,0.0468,0.0472,0.0483,0.0492,0.0502,0.0502,0.05,0.0508,0.0508,0.0508,0.0508,0.057,0.0572,0,0,0,0,0,0,0.0368,0.0376,0.0411,0.0415,0.0402,0.0448,0.0454,0.0452,0.0474,0.0478,0.0482,0.0484,0.0502,0.0502,0.0503,0.0598,0.0508,0.0508,0.0508,0.0569,0.0571,0.0573,0,0,0,0,0,0,0.0366,0.0369,0.0408,0.04,0.0407,0.0448,0.0446,0.0453,0.0495,0.0485,0.0489,0.0521,0.0502,0.0503,0.0547,0.0594,0.0508,0.0508,0.0567,0.0569,0.0572,0.072,0,0,0,0,0,0,0.0364,0.0368,0.0381,0.0399,0.0407,0.0457,0.0446,0.0454,0.05,0.0504,0.0518,0.0518,0.0503,0.0548,0.0547,0.0593,0.0508,0.0565,0.0568,0.0571,0.0713,0.0727,0.0739,0,0,0,0,0,0.0362,0.0372,0.038,0.0386,0.0417,0.0459,0.0467,0.0496,0.0502,0.0532,0.0551,0.0519,0.0566,0.055,0.0549,0.0595,0.0563,0.0567,0.0571,0.0707,0.0724,0.0739,0,0,0,0,0,0,0.0363,0.0378,0.0387,0.0403,0.0443,0.0467,0.0498,0.0516,0.0554,0.0564,0.055,0.0552,0.0606,0.0576,0.0558,0.0619,0.0555,0.0559,0.0659,0.0675,0.0688,0.0709,0.0508,0,0,0,0,0,0.0367,0.0378,0.0406,0.0425,0.0446,0.0478,0.0504,0.0528,0.0556,0.0575,0.0595,0.0603,0.0614,0.0628,0.0632,0.067,0.0657,0.0693,0.0707,0.0718,0.0733,0.0752,0.0769,0.0585,0.0585,0.0585,0,0,0.0374,0.0384,0.0393,0.0428,0.0457,0.0507,0.0495,0.0547,0.0601,0.0567,0.0655,0.0655,0.0634,0.0686,0.0704,0.0673,0.0769,0.0723,0.0734,0.0742,0.0758,0.0776,0.0792,0.0587,0.0587,0.0587,0,0,0.04,0.0404,0.0433,0.0468,0.0523,0.0545,0.0569,0.0623,0.0662,0.0734,0.0724,0.0758,0.0786,0.0788,0.0784,0.0866,0.0839,0.0868,0.0958,0.0977,0.0992,0.1006,0.1042,0.1057,0.0875,0.0875,0.0875,0,0.042,0.045,0.0454,0.05,0.0542,0.0568,0.063,0.067,0.0742,0.0778,0.078,0.0842,0.083,0.0877,0.092,0.0898,0.0916,0.0904,0.0997,0.1009,0.1021,0.1054,0.1069,0.0883,0.0882,0.0881,0.088,0,0.0471,0.0511,0.0534,0.0597,0.064,0.0699,0.075,0.0811,0.0857,0.0894,0.0974,0.0978,0.1009,0.1014,0.1002,0.1079,0.107,0.1014,0.0963,0.1049,0.1078,0.1091,0.0893,0.0891,0.0888,0.0887,0,0,0.0492,0.0559,0.0576,0.0627,0.0701,0.0747,0.0829,0.0911,0.097,0.1041,0.1118,0.116,0.117,0.1167,0.1156,0.1186,0.1295,0.1161,0.1159,0.1209,0.1375,0.1358,0.137,0.1271,0.1273,0.1275,0.1374,0,0.0552,0.0647,0.0664,0.0777,0.0839,0.0878,0.0946,0.1018,0.1079,0.1158,0.1176,0.1236,0.1223,0.1253,0.129,0.1287,0.1334,0.1275,0.1272,0.1272,0.1257,0.1386,0.1128,0.1194,0.1386,0.1388,0.139,0,0.0616,0.0671,0.0783,0.0872,0.0902,0.0968,0.108,0.1148,0.123,0.1273,0.1337,0.1348,0.1423,0.1379,0.1455,0.143,0.1433,0.1424,0.1425,0.1366,0.128,0.113,0.121,0.1411,0.1409,0.1408,0.1406,0,0.066,0.0761,0.0854,0.0892,0.099,0.1049,0.1108,0.1194,0.1243,0.1355,0.1393,0.1472,0.1512,0.154,0.1555,0.152,0.1624,0.1544,0.1533,0.1531,0.1286,0.1259,0.1598,0.1598,0.1598,0.1598,0.1597,0,0.0728,0.0809,0.0884,0.0945,0.1036,0.1099,0.1197,0.1261,0.1336,0.14,0.1461,0.1521,0.1559,0.1613,0.1611,0.1646,0.167,0.1592,0.1569,0.1334,0.1311,0.1457,0.1439,0.1601,0.1601,0.16,0.1599,0,0.0784,0.0834,0.0933,0.1034,0.1065,0.1138,0.1218,0.1273,0.136,0.1445,0.1481,0.1578,0.1682,0.1711,0.176,0.1712,0.173,0.1724,0.147,0.1416,0.161,0.1599,0.1727,0.1728,0.1728,0.1729,0.1729,0,0.0828,0.0891,0.0985,0.1008,0.106,0.1149,0.1191,0.1282,0.1333,0.1477,0.1513,0.1646,0.1721,0.1809,0.1716,0.1717,0.1803,0.1526,0.1399,0.1667,0.1631,0.1618,0.1607,0.1136,0.1131,0.1128,0.1125,0,0.0891,0.0921,0.0972,0.102,0.107,0.1131,0.1211,0.1244,0.136,0.1436,0.1563,0.1637,0.1682,0.1579,0.1582,0.1532,0.1506,0.1453,0.1793,0.1156,0.112,0.1081,0.1086,0.1091,0.1095,0.1097,0.1099,0.11,0.0905,0.0924,0.0959,0.1003,0.1053,0.1113,0.1153,0.1231,0.1314,0.1406,0.1514,0.153,0.1378,0.1256,0.1261,0.126,0.1316,0.1229,0.1235,0.1246,0.1174,0.1142,0.1105,0.1108,0.111,0.1113,0.1115,0,0.0876,0.0892,0.093,0.0972,0.1015,0.1069,0.1151,0.1168,0.1256,0.1302,0.1386,0.1083,0.1,0.0999,0.088,0.0861,0.0795,0.0911,0.0779,0.0807,0.0833,0.0737,0.0554,0.0554,0.0555,0.0555,0,0,0.0848,0.0843,0.086,0.091,0.0963,0.1023,0.1067,0.1103,0.1116,0.1063,0.0998,0.0933,0.0859,0.0639,0.0592,0.0623,0.0743,0.0604,0.1015,0.0881,0.091,0.0935,0.0808,0,0,0,0,0]},{"header":{"parameterUnit":"m.s-1","parameterCategory":2,"la1":30.2991,"la2":30.254,"lo1":-89.0895,"lo2":-89.0444,"dy":0.0017,"dx":0.0017,"nx":28,"ny":28,"refTime":"2024-07-13T03:00:00:Z","depth":"2","parameterNumber":3,"parameterNumberName":"V-component_of_CURRENTS"},"data":[0,0,0,0,0,0,0,0,0,0,0,0,0,0,0,0,0,0,0,0,0,0,0,0,0,0,0,0,0,0,0,0,0,0,0,0,0,0,0,0,0,0,0,0,0,0,0,0,0,0,0,0,0,0,0,0,0,0,0.0088,0.0087,0,-0.0005,-0.0006,-0.0007,-0.0095,-0.0097,-0.0098,-0.01,-0.0156,-0.0156,-0.0157,0,0,0,0,0,0,0,0,0,0,0,0,0,0.0217,0.0215,0.0089,0.0087,0.0085,-0.0005,-0.0006,-0.0007,-0.0095,-0.0097,-0.0099,-0.01,-0.0156,-0.0156,-0.0157,0,0,0,0,0,0,0,0,0,0,0,0,0,0.0151,0.0215,0.0089,0.0027,0.002,-0.0005,-0.0006,-0.0007,-0.0094,-0.0097,-0.0099,-0.0101,-0.0156,-0.0156,-0.0157,-0.011,0,0,-0.0157,-0.0157,0,0,0,0,0,0,0,0,0.0154,0.0147,0.0038,0.0031,0.0023,-0.0045,0.0018,-0.0042,-0.0094,-0.0046,-0.01,-0.0102,-0.0117,-0.0121,-0.0127,-0.0113,-0.0115,-0.0157,-0.0157,-0.0157,-0.0157,0,0,0,0,0,0,0,0.0159,0.015,0.0056,0.0036,0.0027,0.0012,0.0,0.0007,-0.0063,-0.005,-0.0058,-0.0075,-0.0121,-0.0126,-0.0129,-0.0116,-0.0157,-0.0157,-0.0157,-0.0157,-0.0187,-0.0188,0,0,0,0,0,0,0.0162,0.0155,0.0059,0.0053,0.0079,0.0011,-0.0002,-0.0017,-0.0064,-0.0075,-0.0073,-0.0079,-0.0125,-0.0128,-0.0131,-0.0157,-0.0157,-0.0157,-0.0157,-0.0187,-0.0188,-0.0188,0,0,0,0,0,0,0.0165,0.0154,0.0063,0.0098,0.0084,0.0011,-0.0005,-0.0018,-0.0061,-0.0083,-0.0093,-0.0109,-0.0127,-0.0131,-0.0152,-0.0157,-0.0157,-0.0157,-0.0186,-0.0187,-0.0188,-0.0158,0,0,0,0,0,0,0.0169,0.0156,0.0143,0.0098,0.0082,0.004,-0.0004,-0.0018,-0.0068,-0.0078,-0.0115,-0.0121,-0.0129,-0.0152,-0.0153,-0.0157,-0.0157,-0.0185,-0.0186,-0.0188,-0.0159,-0.0158,-0.0158,0,0,0,0,0,0.0174,0.0171,0.0144,0.0131,0.0068,0.0039,0.0031,-0.0026,-0.0068,-0.0075,-0.0112,-0.0122,-0.0162,-0.0152,-0.0152,-0.0157,-0.0184,-0.0186,-0.0188,-0.0159,-0.0158,-0.0158,0,0,0,0,0,0,0.021,0.016,0.0129,0.0106,0.0069,0.0022,0.0001,-0.0037,-0.0072,-0.0094,-0.0119,-0.0125,-0.0151,-0.0158,-0.0147,-0.0175,-0.0179,-0.0181,-0.0157,-0.0157,-0.0157,-0.015,-0.0157,0,0,0,0,0,0.0215,0.0205,0.0149,0.0131,0.0106,0.0049,0.0024,-0.0015,-0.0052,-0.0073,-0.0103,-0.0135,-0.015,-0.0159,-0.0174,-0.0174,-0.0193,-0.0184,-0.0184,-0.0184,-0.0181,-0.0217,-0.022,-0.0194,-0.0194,-0.0194,0,0,0.0224,0.0194,0.0186,0.0139,0.0099,0.0077,0.0029,-0.0014,-0.0031,-0.0069,-0.0104,-0.0135,-0.0153,-0.0164,-0.0176,-0.0174,-0.0202,-0.0186,-0.0185,-0.0183,-0.0219,-0.0222,-0.0224,-0.0195,-0.0195,-0.0195,0,0,0.0242,0.0205,0.0197,0.0169,0.0108,0.0082,0.0064,0.0002,-0.0029,-0.0056,-0.0097,-0.0133,-0.0152,-0.0169,-0.0176,-0.0184,-0.0205,-0.0197,-0.0181,-0.0216,-0.0218,-0.022,-0.0245,-0.025,-0.0191,-0.0191,-0.0191,0,0.024,0.0226,0.0192,0.0171,0.0144,0.0083,0.0061,0.004,-0.002,-0.0037,-0.0068,-0.0129,-0.0152,-0.0161,-0.0173,-0.0181,-0.0205,-0.0174,-0.0214,-0.0217,-0.0219,-0.0245,-0.025,-0.019,-0.019,-0.019,-0.019,0,0.0255,0.0231,0.0221,0.0181,0.0159,0.013,0.0089,0.0064,0.0015,-0.0013,-0.0056,-0.0094,-0.013,-0.0147,-0.016,-0.0189,-0.0201,-0.0212,-0.0208,-0.022,-0.0246,-0.0252,-0.0188,-0.0189,-0.0189,-0.0189,0,0,0.0254,0.0234,0.022,0.0205,0.0154,0.0136,0.0122,0.0091,0.0079,0.0019,0.0,-0.005,-0.0091,-0.0104,-0.0136,-0.0169,-0.0212,-0.0198,-0.0201,-0.0212,-0.0288,-0.0226,-0.0227,-0.0233,-0.0234,-0.0235,-0.0297,0,0.0254,0.0238,0.0227,0.0205,0.0185,0.0148,0.0149,0.012,0.0091,0.0069,0.0014,-0.0017,-0.0064,-0.0089,-0.013,-0.0187,-0.0228,-0.0194,-0.0285,-0.0287,-0.0222,-0.0231,-0.0209,-0.0256,-0.0303,-0.0304,-0.0305,0,0.0245,0.0242,0.0224,0.0214,0.0199,0.0187,0.0166,0.016,0.0137,0.0115,0.0073,0.0033,-0.0021,-0.0066,-0.017,-0.0147,-0.0221,-0.0271,-0.0274,-0.0229,-0.0236,-0.0255,-0.0266,-0.0315,-0.0314,-0.0314,-0.0313,0,0.0243,0.0226,0.0217,0.0206,0.0196,0.0183,0.0174,0.0159,0.0162,0.0136,0.0134,0.0067,0.003,-0.0066,-0.0167,-0.0178,-0.0277,-0.0302,-0.0318,-0.0314,-0.0318,-0.0311,-0.0391,-0.0391,-0.0391,-0.039,-0.039,0,0.0229,0.0215,0.0214,0.0204,0.0204,0.0187,0.0187,0.018,0.0178,0.0191,0.0148,0.0148,0.0023,-0.0041,-0.0147,-0.0233,-0.0265,-0.0313,-0.0325,-0.0305,-0.0298,-0.0368,-0.0365,-0.0393,-0.0392,-0.0392,-0.0391,0,0.0201,0.0204,0.0204,0.0202,0.0197,0.0192,0.0193,0.0206,0.0206,0.0224,0.0216,0.0193,0.0123,0.0012,-0.013,-0.0191,-0.0291,-0.0323,-0.0279,-0.0283,-0.0314,-0.0309,-0.0344,-0.0342,-0.0341,-0.034,-0.0339,0,0.0189,0.0181,0.0192,0.021,0.02,0.0197,0.0205,0.0206,0.0229,0.0258,0.0272,0.023,0.0234,0.0087,-0.0028,-0.0165,-0.026,-0.0263,-0.0275,-0.03,-0.0309,-0.0306,-0.0302,-0.0282,-0.0281,-0.028,-0.0279,0,0.0173,0.0171,0.018,0.0207,0.0217,0.024,0.0248,0.0275,0.0295,0.0336,0.0382,0.0396,0.0306,0.0197,0.0038,-0.0052,-0.0228,-0.024,-0.0299,-0.0273,-0.024,-0.0249,-0.0248,-0.0268,-0.0269,-0.027,-0.0271,-0.0271,0.0165,0.0176,0.0195,0.0217,0.0241,0.0284,0.0323,0.0363,0.0423,0.0516,0.0502,0.0517,0.0337,0.0179,0.0044,-0.0091,-0.0093,-0.0211,-0.0216,-0.0222,-0.0179,-0.0143,-0.0146,-0.0146,-0.0146,-0.0147,-0.0147,0,0.0169,0.018,0.021,0.0255,0.0289,0.0295,0.0361,0.0437,0.0539,0.0582,0.0661,0.0475,0.0387,0.0171,0.0015,-0.0077,-0.0089,-0.0159,-0.02,-0.0207,-0.0215,-0.0174,-0.0138,-0.0139,-0.0139,-0.014,0,0,0.0179,0.0207,0.0226,0.0291,0.0321,0.0399,0.0456,0.0577,0.0627,0.0669,0.0633,0.0672,0.0375,0.0207,0.0062,-0.0044,-0.0089,-0.0043,-0.0033,-0.0067,-0.0073,-0.0221,-0.0162,0,0,0,0,0]}],[{"header":{"parameterUnit":"m.s-1","parameterCategory":2,"la1":30.2991,"la2":30.254,"lo1":-89.0895,"lo2":-89.0444,"dy":0.0017,"dx":0.0017,"nx":28,"ny":28,"refTime":"2024-07-13T03:00:00:Z","depth":"4","parameterNumber":2,"parameterNumberName":"U-component_of_CURRENTS"},"data":[0,0,0,0,0,0,0,0,0,0,0,0,0,0,0,0,0,0,0,0,0,0,0,0,0,0,0,0,0,0,0,0,0,0,0,0,0,0,0,0,0,0,0,0,0,0,0,0,0,0,0,0,0,0,0,0,0,0,-0.0299,-0.03,0,-0.0354,-0.0354,-0.0355,-0.0388,-0.0388,-0.0388,-0.0389,-0.0514,-0.0518,-0.0521,0,0,0,0,0,0,0,0,0,0,0,0,0,-0.0262,-0.0262,-0.0299,-0.03,-0.0301,-0.0354,-0.0354,-0.0355,-0.0388,-0.0388,-0.0388,-0.0389,-0.0513,-0.0517,-0.0521,0,0,0,0,0,0,0,0,0,0,0,0,0,-0.0293,-0.0262,-0.0299,-0.0324,-0.0327,-0.0354,-0.0354,-0.0355,-0.0388,-0.0388,-0.0389,-0.0389,-0.0512,-0.0517,-0.0521,-0.0544,0,0,-0.0536,-0.0538,0,0,0,0,0,0,0,0,-0.0291,-0.0294,-0.032,-0.0322,-0.0325,-0.0365,-0.0387,-0.0422,-0.0388,-0.0364,-0.0389,-0.0389,-0.0471,-0.0479,-0.0487,-0.055,-0.0556,-0.0536,-0.0539,-0.0541,-0.0543,0,0,0,0,0,0,0,-0.0289,-0.0292,-0.032,-0.032,-0.0324,-0.0345,-0.035,-0.0394,-0.0416,-0.0366,-0.0369,-0.0376,-0.0473,-0.0482,-0.0491,-0.0558,-0.0536,-0.054,-0.0543,-0.0545,-0.0697,-0.0699,0,0,0,0,0,0,-0.0281,-0.029,-0.0319,-0.0322,-0.0309,-0.0346,-0.0351,-0.0351,-0.0414,-0.0424,-0.0375,-0.0377,-0.0474,-0.0485,-0.0495,-0.0611,-0.0541,-0.0546,-0.0548,-0.0696,-0.0698,-0.0699,0,0,0,0,0,0,-0.028,-0.0282,-0.0316,-0.0308,-0.0314,-0.0346,-0.0347,-0.0352,-0.0395,-0.042,-0.0431,-0.0416,-0.0475,-0.0489,-0.0573,-0.0613,-0.0548,-0.0552,-0.0695,-0.0697,-0.0698,-0.0788,0,0,0,0,0,0,-0.0278,-0.0282,-0.0294,-0.0307,-0.0314,-0.034,-0.0347,-0.0353,-0.0397,-0.04,-0.0458,-0.0468,-0.0476,-0.0566,-0.0577,-0.0618,-0.0556,-0.0693,-0.0696,-0.0698,-0.0783,-0.0792,-0.08,0,0,0,0,0,-0.0276,-0.0284,-0.0294,-0.0299,-0.0325,-0.0341,-0.0346,-0.037,-0.0399,-0.0412,-0.0472,-0.0468,-0.0587,-0.0572,-0.0585,-0.0628,-0.0692,-0.0695,-0.0698,-0.0779,-0.0791,-0.08,0,0,0,0,0,0,-0.0277,-0.0289,-0.03,-0.0313,-0.0331,-0.0346,-0.037,-0.0393,-0.045,-0.0477,-0.0503,-0.0518,-0.0601,-0.06,-0.0583,-0.0672,-0.0631,-0.0637,-0.0689,-0.0699,-0.0708,-0.0676,-0.056,0,0,0,0,0,-0.0282,-0.0299,-0.0306,-0.0326,-0.0333,-0.0363,-0.0382,-0.0404,-0.0447,-0.0473,-0.0517,-0.0565,-0.0615,-0.0649,-0.0684,-0.0749,-0.0712,-0.0776,-0.0784,-0.0791,-0.0772,-0.0771,-0.0778,-0.0708,-0.0708,-0.0708,0,0,-0.0291,-0.0304,-0.0314,-0.033,-0.0351,-0.0364,-0.0376,-0.0418,-0.0446,-0.0481,-0.0556,-0.0608,-0.064,-0.0709,-0.0744,-0.0721,-0.079,-0.0795,-0.0802,-0.0777,-0.0775,-0.0781,-0.0787,-0.071,-0.0709,-0.0709,0,0,-0.0307,-0.0326,-0.0338,-0.0353,-0.0389,-0.0401,-0.042,-0.0458,-0.049,-0.0569,-0.0601,-0.0677,-0.0752,-0.0778,-0.0802,-0.0876,-0.0839,-0.0892,-0.0915,-0.0916,-0.0922,-0.0926,-0.088,-0.088,-0.0893,-0.0893,-0.0893,0,-0.0318,-0.0332,-0.0346,-0.0361,-0.0382,-0.0419,-0.0438,-0.0469,-0.0539,-0.0575,-0.0602,-0.0732,-0.0775,-0.0846,-0.0877,-0.0897,-0.0873,-0.0882,-0.0927,-0.0931,-0.0934,-0.0886,-0.0884,-0.0898,-0.0897,-0.0897,-0.0896,0,-0.0331,-0.0352,-0.0365,-0.0391,-0.0414,-0.0445,-0.0476,-0.052,-0.0582,-0.062,-0.0723,-0.0792,-0.0857,-0.0895,-0.092,-0.097,-0.0938,-0.0944,-0.0902,-0.0946,-0.0893,-0.0889,-0.0904,-0.0903,-0.0901,-0.09,0,0,-0.0329,-0.0363,-0.0372,-0.0389,-0.0439,-0.0456,-0.0507,-0.0552,-0.0595,-0.0684,-0.0738,-0.0857,-0.0902,-0.0928,-0.0974,-0.0991,-0.1011,-0.0984,-0.0982,-0.0937,-0.0982,-0.0861,-0.0845,-0.1035,-0.1036,-0.1036,-0.0933,0,-0.0338,-0.0359,-0.0384,-0.0424,-0.0436,-0.0483,-0.0522,-0.0581,-0.0642,-0.0699,-0.0782,-0.0856,-0.0908,-0.096,-0.0991,-0.1009,-0.1007,-0.1035,-0.0944,-0.094,-0.0828,-0.084,-0.1036,-0.0931,-0.093,-0.0929,-0.0929,0,-0.0344,-0.0358,-0.0388,-0.0436,-0.0447,-0.0486,-0.0556,-0.0598,-0.0674,-0.0725,-0.0808,-0.0857,-0.0921,-0.095,-0.0979,-0.0998,-0.099,-0.0992,-0.0988,-0.0835,-0.0813,-0.0878,-0.0922,-0.0922,-0.0923,-0.0923,-0.0924,0,-0.0333,-0.0367,-0.0395,-0.0412,-0.0464,-0.0507,-0.0549,-0.0625,-0.0655,-0.0739,-0.0763,-0.0849,-0.088,-0.0906,-0.0913,-0.0954,-0.0899,-0.0949,-0.0819,-0.0809,-0.0909,-0.0905,-0.0937,-0.0937,-0.0938,-0.0938,-0.0938,0,-0.033,-0.0356,-0.0397,-0.0416,-0.0452,-0.0511,-0.0567,-0.0615,-0.0678,-0.0695,-0.078,-0.0776,-0.0873,-0.0854,-0.0877,-0.0808,-0.0861,-0.0799,-0.0775,-0.0948,-0.095,-0.0905,-0.0903,-0.0934,-0.0935,-0.0936,-0.0936,0,-0.0322,-0.0346,-0.0375,-0.0432,-0.045,-0.0488,-0.0551,-0.0576,-0.0647,-0.066,-0.0679,-0.0715,-0.0681,-0.0716,-0.0722,-0.0727,-0.0695,-0.0649,-0.0775,-0.0764,-0.0616,-0.062,-0.0514,-0.0509,-0.0504,-0.0501,-0.0498,0,-0.0317,-0.0334,-0.0379,-0.038,-0.0414,-0.0465,-0.0484,-0.0559,-0.0568,-0.0594,-0.0573,-0.0553,-0.0564,-0.0451,-0.0517,-0.05,-0.0511,-0.0496,-0.062,-0.0584,-0.0573,-0.0584,-0.0593,-0.0491,-0.049,-0.0489,-0.0488,0,-0.0309,-0.0338,-0.0355,-0.0351,-0.0372,-0.0375,-0.0411,-0.0393,-0.0453,-0.0513,-0.044,-0.0421,-0.0352,-0.0357,-0.0322,-0.0332,-0.0524,-0.0452,-0.0464,-0.0581,-0.0556,-0.0551,-0.0565,-0.0473,-0.0475,-0.0476,-0.0477,0,-0.0311,-0.0307,-0.0323,-0.0321,-0.0312,-0.0272,-0.0299,-0.0283,-0.0295,-0.0332,-0.0286,-0.0273,-0.0304,-0.0259,-0.023,-0.0219,-0.0259,-0.0305,-0.0326,-0.0343,-0.0343,-0.029,-0.0082,0,0,0,0,0,-0.0296,-0.0285,-0.0279,-0.0253,-0.0233,-0.0234,-0.0232,-0.0257,-0.0292,-0.0216,-0.0259,-0.0191,-0.0152,-0.0144,-0.0102,-0.017,-0.0263,-0.0125,-0.0329,-0.039,-0.0407,-0.0428,0,0,0,0,0,0,-0.028,-0.028,-0.027,-0.0194,-0.0159,-0.013,-0.012,-0.0145,-0.0105,-0.0148,-0.0109,-0.0183,-0.013,-0.0164,-0.0099,-0.0103,-0.0227,-0.014,-0.0139,-0.038,-0.0396,-0.041,-0.0437,0,0,0,0,0]},{"header":{"parameterUnit":"m.s-1","parameterCategory":2,"la1":30.2991,"la2":30.254,"lo1":-89.0895,"lo2":-89.0444,"dy":0.0017,"dx":0.0017,"nx":28,"ny":28,"refTime":"2024-07-13T03:00:00:Z","depth":"4","parameterNumber":3,"parameterNumberName":"V-component_of_CURRENTS"},"data":[0,0,0,0,0,0,0,0,0,0,0,0,0,0,0,0,0,0,0,0,0,0,0,0,0,0,0,0,0,0,0,0,0,0,0,0,0,0,0,0,0,0,0,0,0,0,0,0,0,0,0,0,0,0,0,0,0,0,0.0045,0.0045,0,0.0046,0.0046,0.0046,0.0077,0.0078,0.0079,0.0081,0.0108,0.0107,0.0107,0,0,0,0,0,0,0,0,0,0,0,0,0,0.0061,0.0061,0.0045,0.0045,0.0046,0.0046,0.0046,0.0046,0.0077,0.0078,0.008,0.0081,0.0108,0.0107,0.0107,0,0,0,0,0,0,0,0,0,0,0,0,0,0.0054,0.006,0.0045,0.0064,0.0066,0.0046,0.0046,0.0046,0.0077,0.0078,0.008,0.0082,0.0108,0.0107,0.0107,0.0068,0,0,0.0105,0.0105,0,0,0,0,0,0,0,0,0.0054,0.0053,0.0061,0.0063,0.0065,0.0067,0.0062,0.0056,0.0076,0.0069,0.0081,0.0083,0.0098,0.0098,0.0088,0.007,0.0071,0.0105,0.0105,0.0104,0.0104,0,0,0,0,0,0,0,0.0055,0.0053,0.0042,0.0061,0.0064,0.007,0.0071,0.006,0.0071,0.0069,0.0073,0.0078,0.0099,0.0089,0.0089,0.0071,0.0105,0.0105,0.0104,0.0104,0.005,0.0048,0,0,0,0,0,0,0.0061,0.0053,0.0042,0.0042,0.0068,0.0069,0.0069,0.0061,0.007,0.0074,0.0077,0.008,0.0089,0.009,0.0091,0.0093,0.0104,0.0104,0.0104,0.0051,0.0049,0.0048,0,0,0,0,0,0,0.0061,0.0059,0.0042,0.0052,0.0051,0.0067,0.0058,0.0061,0.0067,0.0077,0.0081,0.0083,0.009,0.0091,0.0086,0.0093,0.0104,0.0103,0.0052,0.005,0.0049,0.0067,0,0,0,0,0,0,0.0061,0.0058,0.0057,0.0052,0.005,0.003,0.0057,0.0059,0.0069,0.0073,0.0083,0.0086,0.0092,0.0086,0.0085,0.0092,0.0103,0.0053,0.0051,0.0049,0.0068,0.0066,0.0065,0,0,0,0,0,0.0061,0.005,0.0056,0.0056,0.0046,0.003,0.0029,0.0045,0.0068,0.0059,0.007,0.0087,0.0073,0.0085,0.0084,0.0091,0.0054,0.0052,0.0049,0.0069,0.0067,0.0065,0,0,0,0,0,0,0.0064,0.0052,0.0059,0.0048,0.0042,0.0037,0.0037,0.0047,0.0046,0.0057,0.0071,0.0073,0.007,0.0066,0.008,0.0064,0.0066,0.0063,0.0081,0.0079,0.0078,0.0087,0.0102,0,0,0,0,0,0.0061,0.0047,0.0041,0.0033,0.0031,0.0034,0.0034,0.004,0.004,0.0043,0.0053,0.0056,0.0052,0.0057,0.0046,0.0038,0.0037,0.0039,0.0037,0.0036,0.0039,0.004,0.004,0.004,0.004,0.004,0,0,0.0062,0.0055,0.0049,0.0033,0.0032,0.0013,0.0037,0.0033,0.0021,0.0044,0.0038,0.0048,0.0044,0.0037,0.0036,0.0043,0.0032,0.0033,0.0033,0.0037,0.0038,0.0038,0.0038,0.0038,0.0038,0.0039,0,0,0.0049,0.0049,0.003,0.0018,0.0013,0.0007,0.0008,0.0004,0.0008,-0.0002,0.0015,0.002,0.0019,0.0016,0.0015,-0.001,0.0019,0.0002,0.0013,0.0014,0.0015,0.0015,0.0008,0.0008,0.0009,0.0009,0.0009,0,0.0052,0.0027,0.0024,0.0001,-0.0007,0.0004,-0.0019,-0.0025,-0.0028,-0.0028,-0.0003,-0.0005,0.0,-0.0011,0.0001,-0.0012,0.0005,0.0028,0.0015,0.0016,0.0017,0.0009,0.0008,0.0009,0.0009,0.0009,0.0009,0,0.0021,0.0003,-0.0007,-0.0036,-0.0051,-0.0066,-0.0076,-0.008,-0.0063,-0.0063,-0.0061,-0.005,-0.0038,-0.0037,-0.0011,-0.0004,0.0011,0.0011,0.0029,0.0018,0.0009,0.0009,0.001,0.001,0.001,0.001,0,0,0.0017,-0.0022,-0.0026,-0.0045,-0.007,-0.0087,-0.0109,-0.0129,-0.0134,-0.012,-0.0122,-0.0107,-0.0065,-0.0063,-0.0034,-0.002,0.0005,0.0025,0.0025,0.0033,0.0024,-0.0021,-0.0026,0.0032,0.0032,0.0032,0.0015,0,-0.0004,-0.0049,-0.0067,-0.011,-0.0133,-0.014,-0.0162,-0.0176,-0.017,-0.0171,-0.015,-0.0132,-0.0086,-0.0046,-0.0029,-0.0,0.0008,0.001,0.0019,0.0019,-0.0006,-0.0027,0.0033,0.0015,0.0015,0.0015,0.0015,0,-0.0032,-0.0058,-0.0099,-0.0145,-0.0155,-0.0174,-0.0199,-0.0215,-0.0219,-0.0204,-0.0176,-0.0146,-0.0108,-0.0068,-0.0029,-0.0011,0.0018,0.0028,0.0027,-0.002,-0.0027,0.0027,0.0014,0.0014,0.0014,0.0014,0.0014,0,-0.0032,-0.0085,-0.0114,-0.013,-0.0176,-0.0186,-0.0197,-0.0214,-0.0224,-0.0198,-0.0188,-0.0154,-0.0116,-0.0077,-0.003,-0.0002,-0.0009,0.0013,-0.0022,-0.0025,0.0017,0.0016,0.0021,0.0021,0.0021,0.0021,0.0021,0,-0.0053,-0.0081,-0.0109,-0.0126,-0.0158,-0.0179,-0.02,-0.0204,-0.0208,-0.0222,-0.0174,-0.0173,-0.0103,-0.0095,-0.005,-0.0044,-0.0028,-0.0027,-0.0034,0.0021,0.0021,0.0016,0.0016,0.0021,0.0021,0.0021,0.0021,0,-0.0056,-0.0076,-0.0113,-0.0149,-0.0157,-0.0169,-0.0195,-0.0213,-0.0198,-0.0209,-0.0186,-0.0171,-0.0145,-0.0125,-0.0088,-0.0081,-0.0073,-0.0082,-0.0042,-0.0046,-0.008,-0.0079,-0.0108,-0.0109,-0.0111,-0.0112,-0.0113,0,-0.0064,-0.0079,-0.0116,-0.0132,-0.0144,-0.0162,-0.0182,-0.0191,-0.0209,-0.0217,-0.0227,-0.0206,-0.0192,-0.0189,-0.0162,-0.0134,-0.0126,-0.0131,-0.008,-0.009,-0.0094,-0.0091,-0.0088,-0.0115,-0.0116,-0.0116,-0.0117,0,-0.0081,-0.0084,-0.0115,-0.0133,-0.0153,-0.0194,-0.0213,-0.0215,-0.0229,-0.0233,-0.024,-0.0228,-0.0233,-0.0204,-0.0199,-0.0175,-0.0128,-0.0145,-0.0141,-0.0093,-0.01,-0.0101,-0.0097,-0.0122,-0.0121,-0.0121,-0.012,0,-0.0088,-0.0108,-0.013,-0.0144,-0.0173,-0.0202,-0.0217,-0.0237,-0.025,-0.0247,-0.0259,-0.0245,-0.0239,-0.0231,-0.0228,-0.0212,-0.0187,-0.0168,-0.0162,-0.0156,-0.0165,-0.018,-0.0239,0,0,0,0,0,-0.0094,-0.0114,-0.014,-0.017,-0.0192,-0.0207,-0.0238,-0.0252,-0.0257,-0.0259,-0.0251,-0.025,-0.0238,-0.0243,-0.0229,-0.0251,-0.019,-0.0238,-0.0166,-0.0151,-0.0145,-0.0151,0,0,0,0,0,0,-0.011,-0.0132,-0.0145,-0.0172,-0.0186,-0.023,-0.024,-0.0254,-0.0254,-0.0248,-0.0237,-0.0252,-0.0236,-0.0231,-0.0225,-0.0227,-0.0183,-0.0238,-0.0238,-0.0154,-0.0149,-0.0144,-0.0148,0,0,0,0,0]}]]